| time (UTC) | temp F | wind direction | speed knots | gust knots | rain 1hr in | rain 24hr in | rain mn in | humidity % | barometer mb |
| 20260505031858 | 47 | 67 | 6.1 | 0.0 | 0.00 | 0.00 | 0.00 | 84 | 1057.9 |
| 20260505031740 | 47 | 67 | 6.1 | 0.0 | 0.00 | 0.00 | 0.00 | 84 | 1058.0 |
| 20260505031632 | 47 | 22 | 5.2 | 0.0 | 0.00 | 0.00 | 0.00 | 84 | 1058.0 |
| 20260505031510 | 47 | 67 | 6.1 | 0.0 | 0.00 | 0.00 | 0.00 | 84 | 1058.0 |
| 20260505031352 | 47 | 22 | 4.3 | 0.0 | 0.00 | 0.00 | 0.00 | 84 | 1058.1 |
| 20260505031245 | 47 | 45 | 2.6 | 0.0 | 0.00 | 0.00 | 0.00 | 84 | 1058.0 |
| 20260505031131 | 47 | 22 | 3.5 | 0.0 | 0.00 | 0.00 | 0.00 | 84 | 1058.1 |
| 20260505031010 | 47 | 22 | 6.1 | 0.0 | 0.00 | 0.00 | 0.00 | 84 | 1058.0 |
| 20260505030849 | 48 | 22 | 0.0 | 0.0 | 0.00 | 0.00 | 0.00 | 84 | 1058.2 |
| 20260505030744 | 48 | 45 | 0.9 | 0.0 | 0.00 | 0.00 | 0.00 | 84 | 1058.1 |
| 20260505030631 | 48 | 22 | 2.6 | 0.0 | 0.00 | 0.00 | 0.00 | 83 | 1058.1 |
| 20260505030509 | 48 | 0 | 3.5 | 0.0 | 0.00 | 0.00 | 0.00 | 84 | 1058.2 |
| 20260505030356 | 48 | 67 | 4.3 | 0.0 | 0.00 | 0.00 | 0.00 | 84 | 1058.1 |
| 20260505030244 | 48 | 22 | 2.6 | 0.0 | 0.00 | 0.00 | 0.00 | 83 | 1058.2 |
| 20260505030136 | 48 | 22 | 4.3 | 0.0 | 0.00 | 0.00 | 0.00 | 84 | 1058.1 |
| 20260505030017 | 48 | 22 | 3.5 | 0.0 | 0.00 | 0.00 | 0.00 | 84 | 1058.1 |
| 20260505025908 | 48 | 22 | 4.3 | 0.0 | 0.00 | 0.00 | 0.00 | 84 | 1058.1 |
| 20260505025754 | 48 | 0 | 3.5 | 0.0 | 0.00 | 0.00 | 0.00 | 84 | 1058.2 |
| 20260505025648 | 48 | 22 | 4.3 | 0.0 | 0.00 | 0.00 | 0.00 | 84 | 1058.1 |
| 20260505025525 | 48 | 45 | 3.5 | 0.0 | 0.00 | 0.00 | 0.00 | 84 | 1058.1 |
| 20260505025411 | 48 | 0 | 2.6 | 0.0 | 0.00 | 0.00 | 0.00 | 84 | 1058.1 |
| 20260505025257 | 48 | 22 | 4.3 | 0.0 | 0.00 | 0.00 | 0.00 | 84 | 1058.0 |
| 20260505025154 | 48 | 0 | 3.5 | 0.0 | 0.00 | 0.00 | 0.00 | 84 | 1058.0 |
| 20260505025047 | 48 | 45 | 3.5 | 0.0 | 0.00 | 0.00 | 0.00 | 84 | 1058.1 |
| 20260505024933 | 48 | 0 | 5.2 | 0.0 | 0.00 | 0.00 | 0.00 | 84 | 1058.0 |
| 20260505024811 | 48 | 22 | 5.2 | 0.0 | 0.00 | 0.00 | 0.00 | 84 | 1058.1 |
| 20260505024642 | 48 | 0 | 3.5 | 0.0 | 0.00 | 0.00 | 0.00 | 84 | 1058.1 |
| 20260505024527 | 48 | 22 | 3.5 | 0.0 | 0.00 | 0.00 | 0.00 | 84 | 1058.1 |
| 20260505024414 | 48 | 22 | 1.7 | 0.0 | 0.00 | 0.00 | 0.00 | 84 | 1058.2 |
| 20260505024253 | 48 | 22 | 7.0 | 0.0 | 0.00 | 0.00 | 0.00 | 84 | 1058.1 |
| 20260505024141 | 48 | 0 | 2.6 | 0.0 | 0.00 | 0.00 | 0.00 | 84 | 1058.1 |
| 20260505024034 | 48 | 45 | 5.2 | 0.0 | 0.00 | 0.00 | 0.00 | 84 | 1058.1 |
| 20260505023920 | 48 | 22 | 5.2 | 0.0 | 0.00 | 0.00 | 0.00 | 84 | 1058.2 |
| 20260505023754 | 48 | 0 | 1.7 | 0.0 | 0.00 | 0.00 | 0.00 | 84 | 1058.3 |
| 20260505023638 | 48 | 45 | 6.1 | 0.0 | 0.00 | 0.00 | 0.00 | 84 | 1058.2 |
| 20260505023526 | 48 | 22 | 5.2 | 0.0 | 0.00 | 0.00 | 0.00 | 84 | 1058.2 |
| 20260505023414 | 48 | 45 | 5.2 | 0.0 | 0.00 | 0.00 | 0.00 | 84 | 1058.2 |
| 20260505023301 | 48 | 45 | 1.7 | 0.0 | 0.00 | 0.00 | 0.00 | 84 | 1058.2 |
| 20260505023154 | 48 | 22 | 0.0 | 0.0 | 0.00 | 0.00 | 0.00 | 84 | 1058.2 |
| 20260505023041 | 48 | 22 | 3.5 | 0.0 | 0.00 | 0.00 | 0.00 | 84 | 1058.3 |
| 20260505022921 | 48 | 22 | 5.2 | 0.0 | 0.00 | 0.00 | 0.00 | 84 | 1058.3 |
| 20260505022814 | 48 | 22 | 5.2 | 0.0 | 0.00 | 0.00 | 0.00 | 84 | 1058.2 |
| 20260505022653 | 48 | 22 | 3.5 | 0.0 | 0.00 | 0.00 | 0.00 | 84 | 1058.3 |
| 20260505022532 | 48 | 22 | 5.2 | 0.0 | 0.00 | 0.00 | 0.00 | 84 | 1058.2 |
| 20260505022411 | 48 | 45 | 6.1 | 0.0 | 0.00 | 0.00 | 0.00 | 84 | 1058.2 |
| 20260505022306 | 48 | 22 | 7.8 | 0.0 | 0.00 | 0.00 | 0.00 | 84 | 1058.3 |
| 20260505022154 | 48 | 45 | 2.6 | 0.0 | 0.00 | 0.00 | 0.00 | 84 | 1058.3 |
| 20260505022050 | 48 | 0 | 3.5 | 0.0 | 0.00 | 0.00 | 0.00 | 84 | 1058.3 |
| 20260505021941 | 48 | 0 | 2.6 | 0.0 | 0.00 | 0.00 | 0.00 | 84 | 1058.2 |
| 20260505021822 | 48 | 22 | 1.7 | 0.0 | 0.00 | 0.00 | 0.00 | 84 | 1058.2 |
| 20260505021708 | 48 | 22 | 3.5 | 0.0 | 0.00 | 0.00 | 0.00 | 84 | 1058.3 |
| 20260505021549 | 48 | 22 | 0.0 | 0.0 | 0.00 | 0.00 | 0.00 | 84 | 1058.3 |
| 20260505021436 | 48 | 22 | 2.6 | 0.0 | 0.00 | 0.00 | 0.00 | 84 | 1058.3 |
| 20260505021331 | 48 | 22 | 1.7 | 0.0 | 0.00 | 0.00 | 0.00 | 84 | 1058.2 |
| 20260505021224 | 48 | 45 | 3.5 | 0.0 | 0.00 | 0.00 | 0.00 | 84 | 1058.4 |
| 20260505021110 | 48 | 22 | 5.2 | 0.0 | 0.00 | 0.00 | 0.00 | 84 | 1058.3 |
| 20260505020943 | 48 | 22 | 6.1 | 0.0 | 0.00 | 0.00 | 0.00 | 84 | 1058.4 |
| 20260505020837 | 48 | 22 | 2.6 | 0.0 | 0.00 | 0.00 | 0.00 | 84 | 1058.4 |
| 20260505020724 | 48 | 22 | 0.0 | 0.0 | 0.00 | 0.00 | 0.00 | 84 | 1058.3 |
| 20260505020602 | 48 | 0 | 1.7 | 0.0 | 0.00 | 0.00 | 0.00 | 84 | 1058.3 |
| 20260505020442 | 48 | 22 | 2.6 | 0.0 | 0.00 | 0.00 | 0.00 | 84 | 1058.3 |
| 20260505020337 | 48 | 0 | 0.0 | 0.0 | 0.00 | 0.00 | 0.00 | 84 | 1058.3 |
| 20260505020232 | 48 | 45 | 1.7 | 0.0 | 0.00 | 0.00 | 0.00 | 84 | 1058.4 |
| 20260505020126 | 48 | 0 | 3.5 | 0.0 | 0.00 | 0.00 | 0.00 | 84 | 1058.4 |
| 20260505020012 | 48 | 0 | 3.5 | 0.0 | 0.00 | 0.00 | 0.00 | 84 | 1058.4 |
| 20260505015900 | 48 | 0 | 6.1 | 0.0 | 0.00 | 0.00 | 0.00 | 84 | 1058.5 |
| 20260505015746 | 48 | 22 | 3.5 | 0.0 | 0.00 | 0.00 | 0.00 | 84 | 1058.4 |
| 20260505015632 | 48 | 22 | 6.1 | 0.0 | 0.00 | 0.00 | 0.00 | 84 | 1058.5 |
| 20260505015512 | 48 | 22 | 6.1 | 0.0 | 0.00 | 0.00 | 0.00 | 84 | 1058.4 |
| 20260505015352 | 48 | 22 | 4.3 | 0.0 | 0.00 | 0.00 | 0.00 | 84 | 1058.4 |
| 20260505015246 | 48 | 0 | 3.5 | 0.0 | 0.00 | 0.00 | 0.00 | 84 | 1058.4 |
| 20260505015141 | 48 | 22 | 5.2 | 0.0 | 0.00 | 0.00 | 0.00 | 84 | 1058.4 |
| 20260505015027 | 48 | 67 | 7.0 | 0.0 | 0.00 | 0.00 | 0.00 | 84 | 1058.5 |
| 20260505014900 | 48 | 0 | 2.6 | 0.0 | 0.00 | 0.00 | 0.00 | 84 | 1058.4 |
| 20260505014754 | 48 | 22 | 5.2 | 0.0 | 0.00 | 0.00 | 0.00 | 84 | 1058.4 |
| 20260505014649 | 48 | 0 | 2.6 | 0.0 | 0.00 | 0.00 | 0.00 | 84 | 1058.4 |
| 20260505014535 | 48 | 45 | 5.2 | 0.0 | 0.00 | 0.00 | 0.00 | 84 | 1058.4 |
| 20260505014415 | 48 | 22 | 8.7 | 0.0 | 0.00 | 0.00 | 0.00 | 84 | 1058.4 |
| 20260505014301 | 48 | 337 | 3.5 | 0.0 | 0.00 | 0.00 | 0.00 | 84 | 1058.4 |
| 20260505014139 | 48 | 0 | 4.3 | 0.0 | 0.00 | 0.00 | 0.00 | 84 | 1058.4 |
| 20260505014029 | 48 | 22 | 4.3 | 0.0 | 0.00 | 0.00 | 0.00 | 84 | 1058.5 |
| 20260505013924 | 48 | 337 | 5.2 | 0.0 | 0.00 | 0.00 | 0.00 | 84 | 1058.5 |
| 20260505013819 | 48 | 0 | 1.7 | 0.0 | 0.00 | 0.00 | 0.00 | 84 | 1058.5 |
| 20260505013712 | 48 | 0 | 1.7 | 0.0 | 0.00 | 0.00 | 0.00 | 84 | 1058.4 |
| 20260505013558 | 48 | 45 | 6.1 | 0.0 | 0.00 | 0.00 | 0.00 | 84 | 1058.5 |
| 20260505013437 | 48 | 22 | 2.6 | 0.0 | 0.00 | 0.00 | 0.00 | 84 | 1058.4 |
| 20260505013315 | 48 | 0 | 3.5 | 0.0 | 0.00 | 0.00 | 0.00 | 84 | 1058.6 |
| 20260505013138 | 48 | 337 | 2.6 | 0.0 | 0.00 | 0.00 | 0.00 | 84 | 1058.5 |
| 20260505012903 | 48 | 0 | 2.6 | 0.0 | 0.00 | 0.00 | 0.00 | 84 | 1058.5 |
| 20260505012751 | 48 | 0 | 0.9 | 0.0 | 0.00 | 0.00 | 0.00 | 84 | 1058.6 |
| 20260505012517 | 48 | 0 | 2.6 | 0.0 | 0.00 | 0.00 | 0.00 | 84 | 1058.5 |
| 20260505012414 | 48 | 0 | 0.0 | 0.0 | 0.00 | 0.00 | 0.00 | 84 | 1058.5 |
| 20260505012306 | 48 | 0 | 2.6 | 0.0 | 0.00 | 0.00 | 0.00 | 84 | 1058.6 |
| 20260505012155 | 48 | 0 | 5.2 | 0.0 | 0.00 | 0.00 | 0.00 | 84 | 1058.6 |
| 20260505012048 | 48 | 337 | 5.2 | 0.0 | 0.00 | 0.00 | 0.00 | 84 | 1058.6 |
| 20260505011919 | 48 | 22 | 2.6 | 0.0 | 0.00 | 0.00 | 0.00 | 84 | 1058.6 |
| 20260505011805 | 48 | 45 | 3.5 | 0.0 | 0.00 | 0.00 | 0.00 | 84 | 1058.6 |
| 20260505011652 | 48 | 0 | 4.3 | 0.0 | 0.00 | 0.00 | 0.00 | 84 | 1058.7 |
| 20260505011533 | 48 | 22 | 0.0 | 0.0 | 0.00 | 0.00 | 0.00 | 84 | 1058.7 |
| 20260505011424 | 48 | 22 | 0.0 | 0.0 | 0.00 | 0.00 | 0.00 | 84 | 1058.6 |
| 20260505011310 | 48 | 22 | 0.0 | 0.0 | 0.00 | 0.00 | 0.00 | 84 | 1058.7 |
| 20260505011147 | 48 | 45 | 3.5 | 0.0 | 0.00 | 0.00 | 0.00 | 84 | 1058.6 |
| 20260505011035 | 48 | 22 | 2.6 | 0.0 | 0.00 | 0.00 | 0.00 | 84 | 1058.6 |
| 20260505010927 | 48 | 0 | 2.6 | 0.0 | 0.00 | 0.00 | 0.00 | 84 | 1058.6 |
| 20260505010812 | 48 | 0 | 4.3 | 0.0 | 0.00 | 0.00 | 0.00 | 84 | 1058.6 |
| 20260505010652 | 48 | 22 | 2.6 | 0.0 | 0.00 | 0.00 | 0.00 | 84 | 1058.6 |
| 20260505010536 | 48 | 22 | 5.2 | 0.0 | 0.00 | 0.00 | 0.00 | 84 | 1058.7 |
| 20260505010422 | 48 | 0 | 2.6 | 0.0 | 0.00 | 0.00 | 0.00 | 84 | 1058.7 |
| 20260505010306 | 48 | 22 | 2.6 | 0.0 | 0.00 | 0.00 | 0.00 | 84 | 1058.6 |
| 20260505005925 | 48 | 22 | 6.1 | 0.0 | 0.00 | 0.00 | 0.00 | 84 | 1058.7 |
| 20260505005811 | 48 | 22 | 1.7 | 0.0 | 0.00 | 0.00 | 0.00 | 84 | 1058.7 |
| 20260505005648 | 48 | 0 | 3.5 | 0.0 | 0.00 | 0.00 | 0.00 | 84 | 1058.7 |
| 20260505005535 | 48 | 0 | 1.7 | 0.0 | 0.00 | 0.00 | 0.00 | 84 | 1058.7 |
| 20260505005430 | 48 | 22 | 1.7 | 0.0 | 0.00 | 0.00 | 0.00 | 84 | 1058.8 |
| 20260505005323 | 48 | 22 | 0.0 | 0.0 | 0.00 | 0.00 | 0.00 | 84 | 1058.8 |
| 20260505005218 | 48 | 45 | 0.0 | 0.0 | 0.00 | 0.00 | 0.00 | 84 | 1058.8 |
| 20260505005111 | 48 | 0 | 1.7 | 0.0 | 0.00 | 0.00 | 0.00 | 84 | 1058.8 |
| 20260505005005 | 48 | 0 | 5.2 | 0.0 | 0.00 | 0.00 | 0.00 | 84 | 1058.8 |
| 20260505004851 | 48 | 0 | 3.5 | 0.0 | 0.00 | 0.00 | 0.00 | 84 | 1058.8 |
| 20260505004728 | 48 | 22 | 5.2 | 0.0 | 0.00 | 0.00 | 0.00 | 84 | 1058.8 |
| 20260505004614 | 48 | 22 | 2.6 | 0.0 | 0.00 | 0.00 | 0.00 | 84 | 1058.8 |
| 20260505004453 | 48 | 22 | 3.5 | 0.0 | 0.00 | 0.00 | 0.00 | 84 | 1058.9 |
| 20260505004339 | 48 | 0 | 1.7 | 0.0 | 0.00 | 0.00 | 0.00 | 84 | 1058.8 |
| 20260505004224 | 48 | 0 | 3.5 | 0.0 | 0.00 | 0.00 | 0.00 | 84 | 1058.8 |
| 20260505004104 | 48 | 45 | 5.2 | 0.0 | 0.00 | 0.00 | 0.00 | 84 | 1058.8 |
| 20260505003951 | 48 | 0 | 0.0 | 0.0 | 0.00 | 0.00 | 0.00 | 84 | 1058.8 |
| 20260505003843 | 48 | 0 | 7.0 | 0.0 | 0.00 | 0.00 | 0.00 | 84 | 1058.8 |
| 20260505003729 | 48 | 22 | 2.6 | 0.0 | 0.00 | 0.00 | 0.00 | 84 | 1058.9 |
| 20260505003624 | 48 | 22 | 2.6 | 0.0 | 0.00 | 0.00 | 0.00 | 84 | 1058.9 |
| 20260505003517 | 48 | 0 | 0.0 | 0.0 | 0.00 | 0.00 | 0.00 | 84 | 1058.9 |
| 20260505003406 | 48 | 0 | 0.0 | 0.0 | 0.00 | 0.00 | 0.00 | 84 | 1058.8 |
| 20260505003257 | 48 | 0 | 0.0 | 0.0 | 0.00 | 0.00 | 0.00 | 84 | 1058.8 |
| 20260505003143 | 48 | 22 | 1.7 | 0.0 | 0.00 | 0.00 | 0.00 | 84 | 1058.8 |
| 20260505003031 | 48 | 0 | 5.2 | 0.0 | 0.00 | 0.00 | 0.00 | 84 | 1058.8 |
| 20260505002923 | 48 | 22 | 5.2 | 0.0 | 0.00 | 0.00 | 0.00 | 84 | 1058.8 |
| 20260505002809 | 48 | 22 | 1.7 | 0.0 | 0.00 | 0.00 | 0.00 | 84 | 1058.8 |
| 20260505002703 | 48 | 22 | 0.0 | 0.0 | 0.00 | 0.00 | 0.00 | 84 | 1058.8 |
| 20260505002557 | 48 | 45 | 5.2 | 0.0 | 0.00 | 0.00 | 0.00 | 84 | 1058.7 |
| 20260505002450 | 48 | 45 | 3.5 | 0.0 | 0.00 | 0.00 | 0.00 | 84 | 1058.8 |
| 20260505002320 | 48 | 22 | 4.3 | 0.0 | 0.00 | 0.00 | 0.00 | 84 | 1058.8 |
| 20260505002206 | 48 | 22 | 2.6 | 0.0 | 0.00 | 0.00 | 0.00 | 84 | 1058.7 |
| 20260505002100 | 48 | 0 | 2.6 | 0.0 | 0.00 | 0.00 | 0.00 | 84 | 1058.8 |
| 20260505001953 | 48 | 45 | 0.0 | 0.0 | 0.00 | 0.00 | 0.00 | 83 | 1058.8 |
| 20260505001841 | 48 | 22 | 7.0 | 0.0 | 0.00 | 0.00 | 0.00 | 84 | 1058.9 |
| 20260505001717 | 48 | 22 | 1.7 | 0.0 | 0.00 | 0.00 | 0.00 | 83 | 1058.8 |
| 20260505001603 | 48 | 0 | 5.2 | 0.0 | 0.00 | 0.00 | 0.00 | 84 | 1058.9 |
| 20260505001457 | 48 | 0 | 5.2 | 0.0 | 0.00 | 0.00 | 0.00 | 84 | 1058.9 |
| 20260505001350 | 48 | 22 | 2.6 | 0.0 | 0.00 | 0.00 | 0.00 | 84 | 1058.8 |
| 20260505001237 | 48 | 22 | 4.3 | 0.0 | 0.00 | 0.00 | 0.00 | 84 | 1058.9 |
| 20260505001114 | 48 | 22 | 3.5 | 0.0 | 0.00 | 0.00 | 0.00 | 84 | 1058.9 |
| 20260505001000 | 48 | 0 | 5.2 | 0.0 | 0.00 | 0.00 | 0.00 | 84 | 1058.9 |
| 20260505000854 | 48 | 337 | 5.2 | 0.0 | 0.00 | 0.00 | 0.00 | 84 | 1058.9 |
| 20260505000746 | 48 | 0 | 5.2 | 0.0 | 0.00 | 0.00 | 0.00 | 84 | 1059.0 |
| 20260505000633 | 48 | 22 | 4.3 | 0.0 | 0.00 | 0.00 | 0.00 | 84 | 1059.0 |
| 20260505000510 | 48 | 337 | 0.0 | 0.0 | 0.00 | 0.00 | 0.00 | 84 | 1059.0 |
| 20260505000358 | 48 | 22 | 6.1 | 0.0 | 0.00 | 0.00 | 0.00 | 83 | 1059.0 |
| 20260505000251 | 48 | 45 | 3.5 | 0.0 | 0.00 | 0.00 | 0.00 | 83 | 1059.0 |
| 20260505000145 | 48 | 22 | 3.5 | 0.0 | 0.00 | 0.00 | 0.00 | 83 | 1059.0 |
| 20260505000024 | 48 | 22 | 0.0 | 0.0 | 0.00 | 0.00 | 0.00 | 84 | 1059.0 |
| 20260504235910 | 48 | 22 | 5.2 | 0.0 | 0.00 | 0.00 | 0.00 | 84 | 1059.0 |
| 20260504235756 | 48 | 22 | 2.6 | 0.0 | 0.00 | 0.00 | 0.00 | 83 | 1059.0 |
| 20260504235651 | 48 | 22 | 3.5 | 0.0 | 0.00 | 0.00 | 0.00 | 84 | 1059.0 |
| 20260504235543 | 48 | 22 | 6.1 | 0.0 | 0.00 | 0.00 | 0.00 | 84 | 1059.0 |
| 20260504235424 | 48 | 0 | 5.2 | 0.0 | 0.00 | 0.00 | 0.00 | 84 | 1059.0 |
| 20260504235316 | 48 | 0 | 0.0 | 0.0 | 0.00 | 0.00 | 0.00 | 84 | 1059.1 |
| 20260504235203 | 48 | 22 | 3.5 | 0.0 | 0.00 | 0.00 | 0.00 | 84 | 1059.0 |
| 20260504235050 | 48 | 22 | 1.7 | 0.0 | 0.00 | 0.00 | 0.00 | 84 | 1059.1 |
| 20260504234945 | 48 | 0 | 5.2 | 0.0 | 0.00 | 0.00 | 0.00 | 84 | 1059.0 |
| 20260504234839 | 48 | 22 | 3.5 | 0.0 | 0.00 | 0.00 | 0.00 | 84 | 1059.1 |
| 20260504234733 | 48 | 22 | 5.2 | 0.0 | 0.00 | 0.00 | 0.00 | 84 | 1059.1 |
| 20260504234626 | 48 | 22 | 6.1 | 0.0 | 0.00 | 0.00 | 0.00 | 84 | 1059.0 |
| 20260504234458 | 48 | 45 | 6.1 | 0.0 | 0.00 | 0.00 | 0.00 | 84 | 1059.0 |
| 20260504234352 | 48 | 0 | 0.9 | 0.0 | 0.00 | 0.00 | 0.00 | 84 | 1059.1 |
| 20260504234238 | 48 | 45 | 3.5 | 0.0 | 0.00 | 0.00 | 0.00 | 84 | 1059.1 |
| 20260504234125 | 48 | 45 | 3.5 | 0.0 | 0.00 | 0.00 | 0.00 | 84 | 1059.1 |
| 20260504234012 | 48 | 22 | 3.5 | 0.0 | 0.00 | 0.00 | 0.00 | 84 | 1059.2 |
| 20260504233859 | 48 | 45 | 3.5 | 0.0 | 0.00 | 0.00 | 0.00 | 84 | 1059.1 |
| 20260504233745 | 48 | 22 | 5.2 | 0.0 | 0.00 | 0.00 | 0.00 | 84 | 1059.1 |
| 20260504233616 | 48 | 22 | 5.2 | 0.0 | 0.00 | 0.00 | 0.00 | 84 | 1059.2 |
| 20260504233503 | 48 | 45 | 0.0 | 0.0 | 0.00 | 0.00 | 0.00 | 84 | 1059.2 |
| 20260504233357 | 48 | 22 | 5.2 | 0.0 | 0.00 | 0.00 | 0.00 | 84 | 1059.2 |
| 20260504233251 | 48 | 22 | 3.5 | 0.0 | 0.00 | 0.00 | 0.00 | 84 | 1059.2 |
| 20260504233144 | 48 | 22 | 2.6 | 0.0 | 0.00 | 0.00 | 0.00 | 84 | 1059.2 |
| 20260504233014 | 48 | 22 | 4.3 | 0.0 | 0.00 | 0.00 | 0.00 | 84 | 1059.2 |
| 20260504232900 | 48 | 22 | 3.5 | 0.0 | 0.00 | 0.00 | 0.00 | 84 | 1059.3 |
| 20260504232754 | 48 | 45 | 4.3 | 0.0 | 0.00 | 0.00 | 0.00 | 84 | 1059.2 |
| 20260504232648 | 48 | 22 | 2.6 | 0.0 | 0.00 | 0.00 | 0.00 | 84 | 1059.2 |
| 20260504232533 | 48 | 22 | 3.5 | 0.0 | 0.00 | 0.00 | 0.00 | 84 | 1059.2 |
| 20260504232420 | 48 | 22 | 5.2 | 0.0 | 0.00 | 0.00 | 0.00 | 84 | 1059.3 |
| 20260504232316 | 48 | 0 | 0.0 | 0.0 | 0.00 | 0.00 | 0.00 | 84 | 1059.3 |
| 20260504232208 | 48 | 0 | 4.3 | 0.0 | 0.00 | 0.00 | 0.00 | 84 | 1059.2 |
| 20260504232047 | 48 | 22 | 4.3 | 0.0 | 0.00 | 0.00 | 0.00 | 84 | 1059.4 |
| 20260504231925 | 48 | 0 | 5.2 | 0.0 | 0.00 | 0.00 | 0.00 | 84 | 1059.3 |
| 20260504231811 | 48 | 0 | 0.0 | 0.0 | 0.00 | 0.00 | 0.00 | 84 | 1059.4 |
| 20260504231657 | 48 | 0 | 4.3 | 0.0 | 0.00 | 0.00 | 0.00 | 84 | 1059.4 |
| 20260504231551 | 48 | 22 | 3.5 | 0.0 | 0.00 | 0.00 | 0.00 | 84 | 1059.4 |
| 20260504231437 | 48 | 22 | 6.1 | 0.0 | 0.00 | 0.00 | 0.00 | 84 | 1059.4 |
| 20260504231315 | 48 | 45 | 1.7 | 0.0 | 0.00 | 0.00 | 0.00 | 84 | 1059.4 |
| 20260504231204 | 48 | 22 | 5.2 | 0.0 | 0.00 | 0.00 | 0.00 | 84 | 1059.5 |
| 20260504231050 | 48 | 22 | 4.3 | 0.0 | 0.00 | 0.00 | 0.00 | 84 | 1059.4 |
| 20260504230946 | 48 | 22 | 1.7 | 0.0 | 0.00 | 0.00 | 0.00 | 84 | 1059.5 |
| 20260504230842 | 48 | 22 | 9.6 | 0.0 | 0.00 | 0.00 | 0.00 | 84 | 1059.5 |
| 20260504230734 | 48 | 0 | 5.2 | 0.0 | 0.00 | 0.00 | 0.00 | 84 | 1059.4 |
| 20260504230612 | 48 | 22 | 2.6 | 0.0 | 0.00 | 0.00 | 0.00 | 84 | 1059.5 |
| 20260504230500 | 48 | 22 | 1.7 | 0.0 | 0.00 | 0.00 | 0.00 | 84 | 1059.6 |
| 20260504230346 | 48 | 0 | 4.3 | 0.0 | 0.00 | 0.00 | 0.00 | 84 | 1059.5 |
| 20260504230226 | 48 | 45 | 0.0 | 0.0 | 0.00 | 0.00 | 0.00 | 84 | 1059.6 |
| 20260504230113 | 48 | 67 | 0.0 | 0.0 | 0.00 | 0.00 | 0.00 | 84 | 1059.6 |
| 20260504230008 | 48 | 22 | 1.7 | 0.0 | 0.00 | 0.00 | 0.00 | 84 | 1059.6 |
| 20260504225857 | 48 | 22 | 1.7 | 0.0 | 0.00 | 0.00 | 0.00 | 84 | 1059.6 |
| 20260504225750 | 48 | 45 | 4.3 | 0.0 | 0.00 | 0.00 | 0.00 | 84 | 1059.6 |
| 20260504225645 | 48 | 22 | 5.2 | 0.0 | 0.00 | 0.00 | 0.00 | 84 | 1059.6 |
| 20260504225532 | 48 | 22 | 2.6 | 0.0 | 0.00 | 0.00 | 0.00 | 84 | 1059.6 |
| 20260504225426 | 48 | 22 | 0.0 | 0.0 | 0.00 | 0.00 | 0.00 | 84 | 1059.6 |
| 20260504225314 | 48 | 45 | 5.2 | 0.0 | 0.00 | 0.00 | 0.00 | 84 | 1059.6 |
| 20260504225201 | 48 | 45 | 4.3 | 0.0 | 0.00 | 0.00 | 0.00 | 84 | 1059.7 |
| 20260504225055 | 48 | 45 | 0.0 | 0.0 | 0.00 | 0.00 | 0.00 | 84 | 1059.7 |
| 20260504224950 | 48 | 45 | 0.0 | 0.0 | 0.00 | 0.00 | 0.00 | 84 | 1059.7 |
| 20260504224831 | 48 | 45 | 3.5 | 0.0 | 0.00 | 0.00 | 0.00 | 84 | 1059.6 |
| 20260504224724 | 48 | 22 | 3.5 | 0.0 | 0.00 | 0.00 | 0.00 | 84 | 1059.6 |
| 20260504224602 | 48 | 45 | 1.7 | 0.0 | 0.00 | 0.00 | 0.00 | 84 | 1059.7 |
| 20260504224449 | 48 | 67 | 2.6 | 0.0 | 0.00 | 0.00 | 0.00 | 84 | 1059.7 |
| 20260504224336 | 48 | 67 | 0.9 | 0.0 | 0.00 | 0.00 | 0.00 | 84 | 1059.7 |
| 20260504224214 | 48 | 22 | 3.5 | 0.0 | 0.00 | 0.00 | 0.00 | 84 | 1059.7 |
| 20260504224046 | 48 | 22 | 5.2 | 0.0 | 0.00 | 0.00 | 0.00 | 84 | 1059.7 |
| 20260504223935 | 48 | 45 | 1.7 | 0.0 | 0.00 | 0.00 | 0.00 | 84 | 1059.7 |
| 20260504223827 | 48 | 45 | 5.2 | 0.0 | 0.00 | 0.00 | 0.00 | 84 | 1059.7 |
| 20260504223716 | 48 | 67 | 0.0 | 0.0 | 0.00 | 0.00 | 0.00 | 84 | 1059.7 |
| 20260504223609 | 48 | 45 | 3.5 | 0.0 | 0.00 | 0.00 | 0.00 | 84 | 1059.7 |
| 20260504223456 | 48 | 22 | 4.3 | 0.0 | 0.00 | 0.00 | 0.00 | 84 | 1059.7 |
| 20260504223343 | 48 | 90 | 1.7 | 0.0 | 0.00 | 0.00 | 0.00 | 84 | 1059.7 |
| 20260504223233 | 48 | 45 | 4.3 | 0.0 | 0.00 | 0.00 | 0.00 | 84 | 1059.7 |
| 20260504223126 | 48 | 22 | 7.8 | 0.0 | 0.00 | 0.00 | 0.00 | 84 | 1059.7 |
| 20260504223019 | 48 | 45 | 0.0 | 0.0 | 0.00 | 0.00 | 0.00 | 84 | 1059.7 |
| 20260504222901 | 48 | 45 | 2.6 | 0.0 | 0.00 | 0.00 | 0.00 | 84 | 1059.7 |
| 20260504222752 | 48 | 67 | 3.5 | 0.0 | 0.00 | 0.00 | 0.00 | 84 | 1059.7 |
| 20260504222633 | 48 | 67 | 5.2 | 0.0 | 0.00 | 0.00 | 0.00 | 84 | 1059.7 |
| 20260504222527 | 48 | 45 | 6.1 | 0.0 | 0.00 | 0.00 | 0.00 | 84 | 1059.6 |
| 20260504222414 | 48 | 22 | 1.7 | 0.0 | 0.00 | 0.00 | 0.00 | 84 | 1059.6 |
| 20260504222301 | 48 | 22 | 0.0 | 0.0 | 0.00 | 0.00 | 0.00 | 84 | 1059.7 |
| 20260504222148 | 48 | 22 | 5.2 | 0.0 | 0.00 | 0.00 | 0.00 | 84 | 1059.7 |
| 20260504222027 | 48 | 22 | 4.3 | 0.0 | 0.00 | 0.00 | 0.00 | 84 | 1059.7 |
| 20260504221914 | 48 | 22 | 4.3 | 0.0 | 0.00 | 0.00 | 0.00 | 84 | 1059.7 |
| 20260504221752 | 48 | 45 | 1.7 | 0.0 | 0.00 | 0.00 | 0.00 | 84 | 1059.7 |
| 20260504221633 | 48 | 45 | 8.7 | 0.0 | 0.00 | 0.00 | 0.00 | 84 | 1059.6 |
| 20260504221527 | 48 | 22 | 5.2 | 0.0 | 0.00 | 0.00 | 0.00 | 84 | 1059.6 |
| 20260504221414 | 48 | 22 | 3.5 | 0.0 | 0.00 | 0.00 | 0.00 | 84 | 1059.5 |
| 20260504221259 | 48 | 45 | 2.6 | 0.0 | 0.00 | 0.00 | 0.00 | 84 | 1059.6 |
| 20260504221131 | 48 | 22 | 5.2 | 0.0 | 0.00 | 0.00 | 0.00 | 84 | 1059.7 |
| 20260504220953 | 48 | 22 | 3.5 | 0.0 | 0.00 | 0.00 | 0.00 | 84 | 1059.6 |
| 20260504220840 | 48 | 45 | 3.5 | 0.0 | 0.00 | 0.00 | 0.00 | 84 | 1059.7 |
| 20260504220735 | 48 | 45 | 6.1 | 0.0 | 0.00 | 0.00 | 0.00 | 84 | 1059.7 |
| 20260504220614 | 48 | 45 | 4.3 | 0.0 | 0.00 | 0.00 | 0.00 | 84 | 1059.7 |
| 20260504220500 | 48 | 0 | 6.1 | 0.0 | 0.00 | 0.00 | 0.00 | 84 | 1059.7 |
| 20260504220348 | 48 | 315 | 6.1 | 0.0 | 0.00 | 0.00 | 0.00 | 84 | 1059.7 |
| 20260504220234 | 48 | 45 | 5.2 | 0.0 | 0.00 | 0.00 | 0.00 | 84 | 1059.8 |
| 20260504220116 | 48 | 0 | 3.5 | 0.0 | 0.00 | 0.00 | 0.00 | 85 | 1059.7 |
| 20260504220008 | 48 | 22 | 3.5 | 0.0 | 0.00 | 0.00 | 0.00 | 85 | 1059.8 |
| 20260504215855 | 48 | 22 | 5.2 | 0.0 | 0.00 | 0.00 | 0.00 | 85 | 1059.8 |
| 20260504215750 | 48 | 22 | 0.0 | 0.0 | 0.00 | 0.00 | 0.00 | 85 | 1059.8 |
| 20260504215621 | 48 | 45 | 4.3 | 0.0 | 0.00 | 0.00 | 0.00 | 85 | 1059.8 |
| 20260504215508 | 48 | 45 | 5.2 | 0.0 | 0.00 | 0.00 | 0.00 | 85 | 1059.8 |
| 20260504215356 | 48 | 45 | 0.0 | 0.0 | 0.00 | 0.00 | 0.00 | 85 | 1059.9 |
| 20260504215241 | 48 | 67 | 3.5 | 0.0 | 0.00 | 0.00 | 0.00 | 85 | 1059.9 |
| 20260504215129 | 48 | 22 | 3.5 | 0.0 | 0.00 | 0.00 | 0.00 | 85 | 1059.9 |
| 20260504215016 | 48 | 67 | 3.5 | 0.0 | 0.00 | 0.00 | 0.00 | 85 | 1059.9 |
| 20260504214910 | 48 | 22 | 3.5 | 0.0 | 0.00 | 0.00 | 0.00 | 85 | 1059.8 |
| 20260504214741 | 48 | 22 | 2.6 | 0.0 | 0.00 | 0.00 | 0.00 | 85 | 1059.9 |
| 20260504214619 | 48 | 0 | 3.5 | 0.0 | 0.00 | 0.00 | 0.00 | 85 | 1059.9 |
| 20260504214458 | 48 | 22 | 1.7 | 0.0 | 0.00 | 0.00 | 0.00 | 85 | 1059.9 |
| 20260504214345 | 48 | 45 | 5.2 | 0.0 | 0.00 | 0.00 | 0.00 | 85 | 1059.9 |
| 20260504214224 | 48 | 22 | 0.0 | 0.0 | 0.00 | 0.00 | 0.00 | 85 | 1059.9 |
| 20260504214111 | 49 | 45 | 2.6 | 0.0 | 0.00 | 0.00 | 0.00 | 85 | 1059.9 |
| 20260504213957 | 48 | 22 | 4.3 | 0.0 | 0.00 | 0.00 | 0.00 | 85 | 1059.9 |
| 20260504213838 | 48 | 67 | 4.3 | 0.0 | 0.00 | 0.00 | 0.00 | 85 | 1059.9 |
| 20260504213732 | 49 | 45 | 0.0 | 0.0 | 0.00 | 0.00 | 0.00 | 85 | 1059.9 |
| 20260504213618 | 49 | 22 | 5.2 | 0.0 | 0.00 | 0.00 | 0.00 | 85 | 1059.9 |
| 20260504213459 | 49 | 22 | 7.0 | 0.0 | 0.00 | 0.00 | 0.00 | 84 | 1059.9 |
| 20260504213353 | 48 | 45 | 3.5 | 0.0 | 0.00 | 0.00 | 0.00 | 84 | 1059.9 |
| 20260504213247 | 49 | 45 | 1.7 | 0.0 | 0.00 | 0.00 | 0.00 | 84 | 1059.9 |
| 20260504213134 | 49 | 0 | 0.0 | 0.0 | 0.00 | 0.00 | 0.00 | 84 | 1059.9 |
| 20260504213021 | 49 | 45 | 1.7 | 0.0 | 0.00 | 0.00 | 0.00 | 84 | 1059.9 |
| 20260504212859 | 49 | 45 | 2.6 | 0.0 | 0.00 | 0.00 | 0.00 | 84 | 1059.9 |
| 20260504212738 | 49 | 45 | 7.0 | 0.0 | 0.00 | 0.00 | 0.00 | 84 | 1059.9 |
| 20260504212625 | 48 | 22 | 0.0 | 0.0 | 0.00 | 0.00 | 0.00 | 84 | 1060.0 |
| 20260504212512 | 49 | 22 | 2.6 | 0.0 | 0.00 | 0.00 | 0.00 | 84 | 1059.9 |
| 20260504212350 | 49 | 22 | 5.2 | 0.0 | 0.00 | 0.00 | 0.00 | 84 | 1059.9 |
| 20260504212221 | 49 | 337 | 5.2 | 0.0 | 0.00 | 0.00 | 0.00 | 84 | 1060.0 |
| 20260504212101 | 49 | 22 | 0.9 | 0.0 | 0.00 | 0.00 | 0.00 | 84 | 1060.0 |
| 20260504211955 | 49 | 22 | 3.5 | 0.0 | 0.00 | 0.00 | 0.00 | 84 | 1060.0 |
| 20260504211850 | 49 | 22 | 4.3 | 0.0 | 0.00 | 0.00 | 0.00 | 84 | 1060.0 |
| 20260504211729 | 49 | 22 | 4.3 | 0.0 | 0.00 | 0.00 | 0.00 | 84 | 1059.9 |
| 20260504211608 | 49 | 0 | 5.2 | 0.0 | 0.00 | 0.00 | 0.00 | 84 | 1060.0 |
| 20260504211504 | 49 | 22 | 1.7 | 0.0 | 0.00 | 0.00 | 0.00 | 84 | 1060.0 |
| 20260504211358 | 49 | 22 | 5.2 | 0.0 | 0.00 | 0.00 | 0.00 | 84 | 1060.0 |
| 20260504211254 | 49 | 22 | 1.7 | 0.0 | 0.00 | 0.00 | 0.00 | 84 | 1060.0 |
| 20260504211147 | 49 | 22 | 1.7 | 0.0 | 0.00 | 0.00 | 0.00 | 84 | 1060.0 |
| 20260504211021 | 49 | 22 | 1.7 | 0.0 | 0.00 | 0.00 | 0.00 | 84 | 1059.9 |
| 20260504210913 | 49 | 45 | 4.3 | 0.0 | 0.00 | 0.00 | 0.00 | 84 | 1059.9 |
| 20260504210801 | 49 | 22 | 4.3 | 0.0 | 0.00 | 0.00 | 0.00 | 84 | 1060.0 |
| 20260504210656 | 49 | 22 | 3.5 | 0.0 | 0.00 | 0.00 | 0.00 | 84 | 1060.0 |
| 20260504210550 | 49 | 0 | 3.5 | 0.0 | 0.00 | 0.00 | 0.00 | 84 | 1059.9 |
| 20260504210436 | 49 | 0 | 4.3 | 0.0 | 0.00 | 0.00 | 0.00 | 85 | 1059.9 |
| 20260504210318 | 49 | 22 | 4.3 | 0.0 | 0.00 | 0.00 | 0.00 | 85 | 1059.9 |
| 20260504210210 | 49 | 22 | 3.5 | 0.0 | 0.00 | 0.00 | 0.00 | 85 | 1059.9 |
| 20260504210041 | 48 | 0 | 3.5 | 0.0 | 0.00 | 0.00 | 0.00 | 85 | 1059.9 |
| 20260504205920 | 49 | 0 | 4.3 | 0.0 | 0.00 | 0.00 | 0.00 | 85 | 1059.8 |
| 20260504205809 | 48 | 0 | 3.5 | 0.0 | 0.00 | 0.00 | 0.00 | 85 | 1059.9 |
| 20260504205701 | 49 | 22 | 0.9 | 0.0 | 0.00 | 0.00 | 0.00 | 85 | 1059.9 |
| 20260504205542 | 49 | 0 | 6.1 | 0.0 | 0.00 | 0.00 | 0.00 | 85 | 1059.9 |
| 20260504205435 | 48 | 45 | 3.5 | 0.0 | 0.00 | 0.00 | 0.00 | 85 | 1059.8 |
| 20260504205325 | 48 | 22 | 5.2 | 0.0 | 0.00 | 0.00 | 0.00 | 85 | 1059.8 |
| 20260504205218 | 48 | 22 | 4.3 | 0.0 | 0.00 | 0.00 | 0.00 | 85 | 1059.9 |
| 20260504205113 | 48 | 45 | 1.7 | 0.0 | 0.00 | 0.00 | 0.00 | 85 | 1059.9 |
| 20260504205001 | 48 | 22 | 3.5 | 0.0 | 0.00 | 0.00 | 0.00 | 85 | 1059.8 |
| 20260504204839 | 48 | 22 | 3.5 | 0.0 | 0.00 | 0.00 | 0.00 | 85 | 1059.9 |
| 20260504204726 | 48 | 22 | 7.0 | 0.0 | 0.00 | 0.00 | 0.00 | 85 | 1059.9 |
| 20260504204612 | 48 | 22 | 0.0 | 0.0 | 0.00 | 0.00 | 0.00 | 85 | 1059.8 |
| 20260504204451 | 48 | 22 | 2.6 | 0.0 | 0.00 | 0.00 | 0.00 | 85 | 1059.9 |
| 20260504204338 | 48 | 22 | 0.0 | 0.0 | 0.00 | 0.00 | 0.00 | 85 | 1059.9 |
| 20260504204234 | 48 | 0 | 2.6 | 0.0 | 0.00 | 0.00 | 0.00 | 85 | 1059.9 |
| 20260504204127 | 48 | 45 | 6.1 | 0.0 | 0.00 | 0.00 | 0.00 | 85 | 1059.7 |
| 20260504204006 | 48 | 22 | 4.3 | 0.0 | 0.00 | 0.00 | 0.00 | 85 | 1059.8 |
| 20260504203845 | 48 | 45 | 3.5 | 0.0 | 0.00 | 0.00 | 0.00 | 85 | 1059.8 |
| 20260504203724 | 48 | 22 | 1.7 | 0.0 | 0.00 | 0.00 | 0.00 | 85 | 1059.7 |
| 20260504203621 | 48 | 90 | 0.0 | 0.0 | 0.00 | 0.00 | 0.00 | 85 | 1059.8 |
| 20260504203506 | 48 | 45 | 3.5 | 0.0 | 0.00 | 0.00 | 0.00 | 86 | 1059.8 |
| 20260504203353 | 48 | 45 | 4.3 | 0.0 | 0.00 | 0.00 | 0.00 | 86 | 1059.7 |
| 20260504203248 | 48 | 22 | 2.6 | 0.0 | 0.00 | 0.00 | 0.00 | 86 | 1059.8 |
| 20260504203126 | 48 | 22 | 2.6 | 0.0 | 0.00 | 0.00 | 0.00 | 86 | 1059.8 |
| 20260504203006 | 48 | 22 | 5.2 | 0.0 | 0.00 | 0.00 | 0.00 | 86 | 1059.7 |
| 20260504202852 | 48 | 22 | 6.1 | 0.0 | 0.00 | 0.00 | 0.00 | 86 | 1059.7 |
| 20260504202730 | 48 | 0 | 1.7 | 0.0 | 0.00 | 0.00 | 0.00 | 86 | 1059.8 |
| 20260504202609 | 48 | 45 | 2.6 | 0.0 | 0.00 | 0.00 | 0.00 | 87 | 1059.8 |
| 20260504202448 | 48 | 45 | 0.0 | 0.0 | 0.00 | 0.00 | 0.00 | 87 | 1059.8 |
| 20260504202335 | 48 | 22 | 5.2 | 0.0 | 0.00 | 0.00 | 0.00 | 87 | 1059.8 |
| 20260504202232 | 48 | 45 | 2.6 | 0.0 | 0.00 | 0.00 | 0.00 | 87 | 1059.8 |
| 20260504202125 | 48 | 22 | 6.1 | 0.0 | 0.00 | 0.00 | 0.00 | 87 | 1059.8 |
| 20260504202005 | 48 | 22 | 0.0 | 0.0 | 0.00 | 0.00 | 0.00 | 87 | 1059.9 |
| 20260504201901 | 48 | 22 | 1.7 | 0.0 | 0.00 | 0.00 | 0.00 | 87 | 1059.9 |
| 20260504201755 | 48 | 45 | 2.6 | 0.0 | 0.00 | 0.00 | 0.00 | 87 | 1059.9 |
| 20260504201649 | 48 | 45 | 5.2 | 0.0 | 0.00 | 0.00 | 0.00 | 87 | 1059.9 |
| 20260504201538 | 48 | 22 | 7.8 | 0.0 | 0.00 | 0.00 | 0.00 | 87 | 1059.8 |
| 20260504201431 | 48 | 22 | 3.5 | 0.0 | 0.00 | 0.00 | 0.00 | 87 | 1059.9 |
| 20260504201318 | 48 | 22 | 7.0 | 0.0 | 0.00 | 0.00 | 0.00 | 87 | 1059.9 |
| 20260504201213 | 48 | 22 | 0.9 | 0.0 | 0.00 | 0.00 | 0.00 | 87 | 1059.9 |
| 20260504201100 | 48 | 22 | 2.6 | 0.0 | 0.00 | 0.00 | 0.00 | 87 | 1059.9 |
| 20260504200938 | 48 | 22 | 5.2 | 0.0 | 0.00 | 0.00 | 0.00 | 87 | 1059.8 |
| 20260504200817 | 48 | 45 | 2.6 | 0.0 | 0.00 | 0.00 | 0.00 | 87 | 1059.8 |
| 20260504200656 | 48 | 67 | 2.6 | 0.0 | 0.00 | 0.00 | 0.00 | 87 | 1059.8 |
| 20260504200543 | 48 | 45 | 2.6 | 0.0 | 0.00 | 0.00 | 0.00 | 87 | 1059.8 |
| 20260504200437 | 48 | 22 | 6.1 | 0.0 | 0.00 | 0.00 | 0.00 | 87 | 1059.7 |
| 20260504200309 | 48 | 22 | 0.0 | 0.0 | 0.00 | 0.00 | 0.00 | 87 | 1059.7 |
| 20260504200206 | 48 | 0 | 4.3 | 0.0 | 0.00 | 0.00 | 0.00 | 87 | 1059.6 |
| 20260504200058 | 48 | 0 | 2.6 | 0.0 | 0.00 | 0.00 | 0.00 | 87 | 1059.7 |
| 20260504195937 | 48 | 45 | 3.5 | 0.0 | 0.00 | 0.00 | 0.00 | 87 | 1059.6 |
| 20260504195824 | 48 | 22 | 6.1 | 0.0 | 0.00 | 0.00 | 0.00 | 87 | 1059.7 |
| 20260504195703 | 48 | 22 | 5.2 | 0.0 | 0.00 | 0.00 | 0.00 | 87 | 1059.6 |
| 20260504195558 | 48 | 45 | 2.6 | 0.0 | 0.00 | 0.00 | 0.00 | 87 | 1059.6 |
| 20260504195445 | 48 | 45 | 6.1 | 0.0 | 0.00 | 0.00 | 0.00 | 87 | 1059.7 |
| 20260504195340 | 48 | 22 | 4.3 | 0.0 | 0.00 | 0.00 | 0.00 | 87 | 1059.7 |
| 20260504195227 | 48 | 45 | 7.8 | 0.0 | 0.00 | 0.00 | 0.00 | 87 | 1059.6 |
| 20260504195113 | 48 | 45 | 5.2 | 0.0 | 0.00 | 0.00 | 0.00 | 88 | 1059.6 |
| 20260504195000 | 48 | 22 | 2.6 | 0.0 | 0.00 | 0.00 | 0.00 | 88 | 1059.6 |
| 20260504194839 | 48 | 0 | 4.3 | 0.0 | 0.00 | 0.00 | 0.00 | 88 | 1059.7 |
| 20260504194717 | 48 | 45 | 0.0 | 0.0 | 0.00 | 0.00 | 0.00 | 88 | 1059.6 |
| 20260504194549 | 48 | 45 | 7.8 | 0.0 | 0.00 | 0.00 | 0.00 | 88 | 1059.7 |
| 20260504194446 | 48 | 22 | 4.3 | 0.0 | 0.00 | 0.00 | 0.00 | 88 | 1059.6 |
| 20260504194340 | 48 | 22 | 4.3 | 0.0 | 0.00 | 0.00 | 0.00 | 88 | 1059.6 |
| 20260504194235 | 48 | 22 | 4.3 | 0.0 | 0.00 | 0.00 | 0.00 | 88 | 1059.6 |
| 20260504194128 | 48 | 22 | 2.6 | 0.0 | 0.00 | 0.00 | 0.00 | 88 | 1059.7 |
| 20260504194016 | 48 | 45 | 5.2 | 0.0 | 0.00 | 0.00 | 0.00 | 88 | 1059.6 |
| 20260504193910 | 48 | 0 | 5.2 | 0.0 | 0.00 | 0.00 | 0.00 | 88 | 1059.6 |
| 20260504193751 | 48 | 45 | 3.5 | 0.0 | 0.00 | 0.00 | 0.00 | 88 | 1059.6 |
| 20260504193645 | 48 | 22 | 1.7 | 0.0 | 0.00 | 0.00 | 0.00 | 88 | 1059.5 |
| 20260504193531 | 48 | 22 | 3.5 | 0.0 | 0.00 | 0.00 | 0.00 | 87 | 1059.6 |
| 20260504193410 | 48 | 22 | 4.3 | 0.0 | 0.00 | 0.00 | 0.00 | 87 | 1059.5 |
| 20260504193304 | 47 | 22 | 0.0 | 0.0 | 0.00 | 0.00 | 0.00 | 87 | 1059.5 |
| 20260504193143 | 47 | 67 | 2.6 | 0.0 | 0.00 | 0.00 | 0.00 | 87 | 1059.6 |
| 20260504192926 | 47 | 22 | 0.0 | 0.0 | 0.00 | 0.00 | 0.00 | 87 | 1059.5 |
| 20260504192821 | 47 | 45 | 3.5 | 0.0 | 0.00 | 0.00 | 0.00 | 86 | 1059.5 |
| 20260504192715 | 47 | 0 | 3.5 | 0.0 | 0.00 | 0.00 | 0.00 | 86 | 1059.5 |
| 20260504192602 | 47 | 22 | 0.0 | 0.0 | 0.00 | 0.00 | 0.00 | 86 | 1059.4 |
| 20260504192441 | 47 | 45 | 5.2 | 0.0 | 0.00 | 0.00 | 0.00 | 86 | 1059.4 |
| 20260504192328 | 47 | 45 | 0.0 | 0.0 | 0.00 | 0.00 | 0.00 | 86 | 1059.3 |
| 20260504192215 | 47 | 22 | 0.0 | 0.0 | 0.00 | 0.00 | 0.00 | 86 | 1059.4 |
| 20260504192102 | 47 | 22 | 3.5 | 0.0 | 0.00 | 0.00 | 0.00 | 86 | 1059.4 |
| 20260504191957 | 47 | 45 | 4.3 | 0.0 | 0.00 | 0.00 | 0.00 | 86 | 1059.4 |
| 20260504191844 | 47 | 45 | 0.0 | 0.0 | 0.00 | 0.00 | 0.00 | 86 | 1059.3 |
| 20260504191730 | 47 | 45 | 1.7 | 0.0 | 0.00 | 0.00 | 0.00 | 85 | 1059.4 |
| 20260504191619 | 47 | 22 | 3.5 | 0.0 | 0.00 | 0.00 | 0.00 | 85 | 1059.4 |
| 20260504191512 | 48 | 22 | 0.0 | 0.0 | 0.00 | 0.00 | 0.00 | 85 | 1059.4 |
| 20260504191358 | 48 | 45 | 0.0 | 0.0 | 0.00 | 0.00 | 0.00 | 85 | 1059.4 |
| 20260504191229 | 48 | 45 | 2.6 | 0.0 | 0.00 | 0.00 | 0.00 | 85 | 1059.4 |
| 20260504191109 | 48 | 45 | 0.0 | 0.0 | 0.00 | 0.00 | 0.00 | 85 | 1059.4 |
| 20260504190955 | 48 | 45 | 0.0 | 0.0 | 0.00 | 0.00 | 0.00 | 85 | 1059.4 |
| 20260504190826 | 48 | 22 | 3.5 | 0.0 | 0.00 | 0.00 | 0.00 | 84 | 1059.4 |
| 20260504190713 | 48 | 22 | 4.3 | 0.0 | 0.00 | 0.00 | 0.00 | 84 | 1059.3 |
| 20260504190607 | 48 | 45 | 0.0 | 0.0 | 0.00 | 0.00 | 0.00 | 84 | 1059.2 |
| 20260504190455 | 48 | 0 | 1.7 | 0.0 | 0.00 | 0.00 | 0.00 | 84 | 1059.3 |
| 20260504190349 | 48 | 22 | 0.0 | 0.0 | 0.00 | 0.00 | 0.00 | 84 | 1059.4 |
| 20260504190228 | 48 | 22 | 1.7 | 0.0 | 0.00 | 0.00 | 0.00 | 84 | 1059.3 |
| 20260504190114 | 48 | 45 | 1.7 | 0.0 | 0.00 | 0.00 | 0.00 | 84 | 1059.4 |
| 20260504190008 | 49 | 22 | 3.5 | 0.0 | 0.00 | 0.00 | 0.00 | 84 | 1059.3 |
| 20260504185853 | 49 | 0 | 5.2 | 0.0 | 0.00 | 0.00 | 0.00 | 84 | 1059.4 |
| 20260504185739 | 49 | 45 | 0.0 | 0.0 | 0.00 | 0.00 | 0.00 | 83 | 1059.4 |
| 20260504185608 | 49 | 22 | 5.2 | 0.0 | 0.00 | 0.00 | 0.00 | 83 | 1059.3 |
| 20260504185449 | 49 | 0 | 4.3 | 0.0 | 0.00 | 0.00 | 0.00 | 83 | 1059.3 |
| 20260504185340 | 49 | 45 | 5.2 | 0.0 | 0.00 | 0.00 | 0.00 | 83 | 1059.4 |
| 20260504185226 | 49 | 22 | 5.2 | 0.0 | 0.00 | 0.00 | 0.00 | 83 | 1059.3 |
| 20260504185120 | 49 | 45 | 5.2 | 0.0 | 0.00 | 0.00 | 0.00 | 83 | 1059.3 |
| 20260504185013 | 49 | 67 | 4.3 | 0.0 | 0.00 | 0.00 | 0.00 | 82 | 1059.3 |
| 20260504184901 | 49 | 45 | 2.6 | 0.0 | 0.00 | 0.00 | 0.00 | 82 | 1059.3 |
| 20260504184754 | 50 | 67 | 0.0 | 0.0 | 0.00 | 0.00 | 0.00 | 82 | 1059.4 |
| 20260504184633 | 50 | 45 | 5.2 | 0.0 | 0.00 | 0.00 | 0.00 | 81 | 1059.3 |
| 20260504184512 | 50 | 45 | 1.7 | 0.0 | 0.00 | 0.00 | 0.00 | 81 | 1059.3 |
| 20260504184352 | 50 | 45 | 1.7 | 0.0 | 0.00 | 0.00 | 0.00 | 81 | 1059.3 |
| 20260504184246 | 50 | 45 | 3.5 | 0.0 | 0.00 | 0.00 | 0.00 | 81 | 1059.3 |
| 20260504184132 | 50 | 45 | 2.6 | 0.0 | 0.00 | 0.00 | 0.00 | 80 | 1059.3 |
| 20260504184028 | 50 | 45 | 3.5 | 0.0 | 0.00 | 0.00 | 0.00 | 80 | 1059.3 |
| 20260504183922 | 51 | 45 | 3.5 | 0.0 | 0.00 | 0.00 | 0.00 | 80 | 1059.3 |
| 20260504183816 | 51 | 22 | 6.1 | 0.0 | 0.00 | 0.00 | 0.00 | 80 | 1059.2 |
| 20260504183648 | 51 | 67 | 2.6 | 0.0 | 0.00 | 0.00 | 0.00 | 79 | 1059.2 |
| 20260504183545 | 51 | 0 | 0.0 | 0.0 | 0.00 | 0.00 | 0.00 | 79 | 1059.1 |
| 20260504183439 | 51 | 45 | 4.3 | 0.0 | 0.00 | 0.00 | 0.00 | 79 | 1059.2 |
| 20260504183333 | 51 | 22 | 4.3 | 0.0 | 0.00 | 0.00 | 0.00 | 79 | 1059.1 |
| 20260504183227 | 51 | 0 | 4.3 | 0.0 | 0.00 | 0.00 | 0.00 | 79 | 1059.1 |
| 20260504183117 | 52 | 45 | 0.9 | 0.0 | 0.00 | 0.00 | 0.00 | 79 | 1059.2 |
| 20260504183009 | 52 | 90 | 0.0 | 0.0 | 0.00 | 0.00 | 0.00 | 79 | 1059.2 |
| 20260504182848 | 52 | 45 | 3.5 | 0.0 | 0.00 | 0.00 | 0.00 | 78 | 1059.2 |
| 20260504182719 | 52 | 67 | 4.3 | 0.0 | 0.00 | 0.00 | 0.00 | 78 | 1059.2 |
| 20260504182557 | 52 | 22 | 1.7 | 0.0 | 0.00 | 0.00 | 0.00 | 78 | 1059.2 |
| 20260504182444 | 52 | 0 | 1.7 | 0.0 | 0.00 | 0.00 | 0.00 | 78 | 1059.1 |
| 20260504182338 | 52 | 45 | 1.7 | 0.0 | 0.00 | 0.00 | 0.00 | 78 | 1059.2 |
| 20260504182233 | 52 | 22 | 3.5 | 0.0 | 0.00 | 0.00 | 0.00 | 78 | 1059.2 |
| 20260504182126 | 52 | 67 | 4.3 | 0.0 | 0.00 | 0.00 | 0.00 | 78 | 1059.3 |
| 20260504182019 | 52 | 0 | 0.0 | 0.0 | 0.00 | 0.00 | 0.00 | 78 | 1059.2 |
| 20260504181906 | 52 | 22 | 3.5 | 0.0 | 0.00 | 0.00 | 0.00 | 77 | 1059.2 |
| 20260504181743 | 52 | 45 | 2.6 | 0.0 | 0.00 | 0.00 | 0.00 | 77 | 1059.1 |
| 20260504181629 | 52 | 67 | 6.1 | 0.0 | 0.00 | 0.00 | 0.00 | 78 | 1059.1 |
| 20260504181506 | 52 | 67 | 3.5 | 0.0 | 0.00 | 0.00 | 0.00 | 78 | 1059.1 |
| 20260504181353 | 52 | 45 | 3.5 | 0.0 | 0.00 | 0.00 | 0.00 | 78 | 1059.2 |
| 20260504181239 | 52 | 45 | 7.8 | 0.0 | 0.00 | 0.00 | 0.00 | 78 | 1059.1 |
| 20260504181125 | 52 | 67 | 5.2 | 0.0 | 0.00 | 0.00 | 0.00 | 78 | 1059.1 |
| 20260504181010 | 52 | 22 | 5.2 | 0.0 | 0.00 | 0.00 | 0.00 | 78 | 1059.1 |
| 20260504180855 | 52 | 0 | 9.6 | 0.0 | 0.00 | 0.00 | 0.00 | 78 | 1059.1 |
| 20260504180741 | 52 | 337 | 2.6 | 0.0 | 0.00 | 0.00 | 0.00 | 78 | 1059.1 |
| 20260504180635 | 52 | 0 | 5.2 | 0.0 | 0.00 | 0.00 | 0.00 | 78 | 1059.0 |
| 20260504180529 | 52 | 22 | 1.7 | 0.0 | 0.00 | 0.00 | 0.00 | 78 | 1059.0 |
| 20260504180423 | 52 | 22 | 4.3 | 0.0 | 0.00 | 0.00 | 0.00 | 77 | 1059.1 |
| 20260504180317 | 52 | 22 | 7.0 | 0.0 | 0.00 | 0.00 | 0.00 | 77 | 1059.2 |
| 20260504180212 | 52 | 22 | 5.2 | 0.0 | 0.00 | 0.00 | 0.00 | 77 | 1059.0 |
| 20260504180105 | 52 | 22 | 4.3 | 0.0 | 0.00 | 0.00 | 0.00 | 77 | 1059.1 |
| 20260504180000 | 52 | 0 | 7.8 | 0.0 | 0.00 | 0.02 | 0.00 | 77 | 1059.1 |
| 20260504175852 | 52 | 22 | 1.7 | 0.0 | 0.00 | 0.02 | 0.00 | 77 | 1059.1 |
| 20260504175731 | 53 | 22 | 3.5 | 0.0 | 0.00 | 0.02 | 0.00 | 77 | 1059.2 |
| 20260504175625 | 53 | 45 | 3.5 | 0.0 | 0.00 | 0.02 | 0.00 | 77 | 1059.2 |
| 20260504175513 | 53 | 45 | 5.2 | 0.0 | 0.00 | 0.02 | 0.00 | 77 | 1059.2 |
| 20260504175404 | 53 | 22 | 2.6 | 0.0 | 0.00 | 0.02 | 0.00 | 76 | 1059.2 |
| 20260504175251 | 53 | 22 | 6.1 | 0.0 | 0.00 | 0.02 | 0.00 | 76 | 1059.2 |
| 20260504175146 | 53 | 22 | 5.2 | 0.0 | 0.00 | 0.02 | 0.00 | 76 | 1059.3 |
| 20260504175039 | 53 | 45 | 6.1 | 0.0 | 0.00 | 0.02 | 0.00 | 76 | 1059.3 |
| 20260504174934 | 53 | 0 | 5.2 | 0.0 | 0.00 | 0.02 | 0.00 | 76 | 1059.3 |
| 20260504174828 | 53 | 45 | 7.0 | 0.0 | 0.00 | 0.02 | 0.00 | 76 | 1059.2 |
| 20260504174656 | 53 | 0 | 1.7 | 0.0 | 0.00 | 0.02 | 0.00 | 76 | 1059.3 |
| 20260504174543 | 53 | 22 | 3.5 | 0.0 | 0.00 | 0.02 | 0.00 | 76 | 1059.3 |
| 20260504174437 | 53 | 0 | 7.8 | 0.0 | 0.00 | 0.02 | 0.00 | 76 | 1059.4 |
| 20260504174332 | 53 | 45 | 7.0 | 0.0 | 0.00 | 0.02 | 0.00 | 76 | 1059.3 |
| 20260504174212 | 53 | 337 | 3.5 | 0.0 | 0.00 | 0.02 | 0.00 | 76 | 1059.4 |
| 20260504174058 | 53 | 0 | 2.6 | 0.0 | 0.00 | 0.02 | 0.00 | 76 | 1059.3 |
| 20260504173945 | 53 | 45 | 7.8 | 0.0 | 0.00 | 0.02 | 0.00 | 76 | 1059.3 |
| 20260504173839 | 53 | 45 | 7.0 | 0.0 | 0.00 | 0.02 | 0.00 | 76 | 1059.4 |
| 20260504173710 | 53 | 22 | 4.3 | 0.0 | 0.00 | 0.02 | 0.00 | 76 | 1059.4 |
| 20260504173557 | 53 | 0 | 7.8 | 0.0 | 0.00 | 0.02 | 0.00 | 76 | 1059.3 |
| 20260504173436 | 53 | 0 | 2.6 | 0.0 | 0.00 | 0.02 | 0.00 | 76 | 1059.3 |
| 20260504173323 | 53 | 0 | 4.3 | 0.0 | 0.00 | 0.02 | 0.00 | 76 | 1059.3 |
| 20260504173209 | 53 | 45 | 4.3 | 0.0 | 0.00 | 0.02 | 0.00 | 76 | 1059.3 |
| 20260504173041 | 53 | 45 | 4.3 | 0.0 | 0.00 | 0.02 | 0.00 | 75 | 1059.2 |
| 20260504172936 | 53 | 67 | 5.2 | 0.0 | 0.00 | 0.02 | 0.00 | 75 | 1059.2 |
| 20260504172814 | 54 | 22 | 6.1 | 0.0 | 0.00 | 0.02 | 0.00 | 75 | 1059.2 |
| 20260504172700 | 54 | 45 | 7.8 | 0.0 | 0.00 | 0.02 | 0.00 | 75 | 1059.2 |
| 20260504172549 | 54 | 22 | 6.1 | 0.0 | 0.00 | 0.02 | 0.00 | 75 | 1059.2 |
| 20260504172443 | 54 | 0 | 2.6 | 0.0 | 0.00 | 0.02 | 0.00 | 74 | 1059.2 |
| 20260504172321 | 54 | 22 | 6.1 | 0.0 | 0.00 | 0.02 | 0.00 | 74 | 1059.1 |
| 20260504172200 | 54 | 22 | 6.1 | 0.0 | 0.00 | 0.02 | 0.00 | 74 | 1059.1 |
| 20260504172047 | 54 | 0 | 4.3 | 0.0 | 0.00 | 0.02 | 0.00 | 74 | 1059.1 |
| 20260504171942 | 54 | 22 | 6.1 | 0.0 | 0.00 | 0.02 | 0.00 | 74 | 1059.1 |
| 20260504171829 | 54 | 45 | 7.8 | 0.0 | 0.00 | 0.02 | 0.00 | 74 | 1059.1 |
| 20260504171708 | 55 | 22 | 2.6 | 0.0 | 0.00 | 0.02 | 0.00 | 74 | 1059.1 |
| 20260504171539 | 55 | 22 | 4.3 | 0.0 | 0.00 | 0.02 | 0.00 | 73 | 1059.1 |
| 20260504171425 | 55 | 0 | 5.2 | 0.0 | 0.00 | 0.02 | 0.00 | 74 | 1059.1 |
| 20260504171312 | 55 | 45 | 7.0 | 0.0 | 0.00 | 0.02 | 0.00 | 74 | 1059.1 |
| 20260504171158 | 55 | 0 | 2.6 | 0.0 | 0.00 | 0.02 | 0.00 | 74 | 1059.1 |
| 20260504171045 | 55 | 0 | 1.7 | 0.0 | 0.00 | 0.02 | 0.00 | 74 | 1059.1 |
| 20260504170933 | 55 | 22 | 3.5 | 0.0 | 0.00 | 0.02 | 0.00 | 73 | 1059.1 |
| 20260504170830 | 55 | 67 | 5.2 | 0.0 | 0.00 | 0.02 | 0.00 | 73 | 1059.1 |
| 20260504170723 | 55 | 22 | 0.0 | 0.0 | 0.00 | 0.02 | 0.00 | 73 | 1059.1 |
| 20260504170610 | 55 | 0 | 1.7 | 0.0 | 0.00 | 0.02 | 0.00 | 73 | 1059.1 |
| 20260504170505 | 55 | 22 | 5.2 | 0.0 | 0.00 | 0.02 | 0.00 | 73 | 1059.1 |
| 20260504170400 | 55 | 0 | 7.0 | 0.0 | 0.00 | 0.02 | 0.00 | 73 | 1059.0 |
| 20260504170255 | 55 | 22 | 4.3 | 0.0 | 0.00 | 0.02 | 0.00 | 73 | 1059.1 |
| 20260504170141 | 55 | 22 | 3.5 | 0.0 | 0.00 | 0.02 | 0.00 | 73 | 1059.0 |
| 20260504160349 | 57 | 22 | 4.3 | 0.0 | 0.00 | 0.02 | 0.00 | 70 | 1059.2 |
| 20260504160243 | 57 | 90 | 2.6 | 0.0 | 0.00 | 0.02 | 0.00 | 71 | 1059.2 |
| 20260504160137 | 57 | 45 | 2.6 | 0.0 | 0.00 | 0.02 | 0.00 | 70 | 1059.2 |
| 20260504151147 | 61 | 45 | 0.0 | 0.0 | 0.00 | 0.08 | 0.00 | 68 | 1059.0 |
| 20260504151035 | 61 | 0 | 2.6 | 0.0 | 0.00 | 0.08 | 0.00 | 68 | 1059.0 |
| 20260504150913 | 61 | 45 | 5.2 | 0.0 | 0.00 | 0.08 | 0.00 | 69 | 1059.0 |
| 20260504150759 | 61 | 67 | 3.5 | 0.0 | 0.00 | 0.08 | 0.00 | 69 | 1059.0 |
| 20260504150631 | 61 | 22 | 1.7 | 0.0 | 0.00 | 0.08 | 0.00 | 69 | 1059.0 |
| 20260504150528 | 60 | 67 | 6.1 | 0.0 | 0.00 | 0.08 | 0.00 | 70 | 1059.0 |
| 20260504150420 | 60 | 67 | 2.6 | 0.0 | 0.00 | 0.08 | 0.00 | 69 | 1058.9 |
| 20260504150309 | 60 | 22 | 6.1 | 0.0 | 0.00 | 0.08 | 0.00 | 70 | 1059.1 |
| 20260504150203 | 60 | 22 | 5.2 | 0.0 | 0.00 | 0.08 | 0.00 | 70 | 1059.0 |
| 20260504141313 | 59 | 45 | 2.6 | 0.0 | 0.00 | 0.10 | 0.00 | 73 | 1059.1 |
| 20260504141159 | 59 | 22 | 4.3 | 0.0 | 0.00 | 0.10 | 0.00 | 73 | 1059.2 |
| 20260504141038 | 59 | 90 | 0.0 | 0.0 | 0.00 | 0.10 | 0.00 | 73 | 1059.3 |
| 20260504140917 | 59 | 45 | 0.0 | 0.0 | 0.00 | 0.10 | 0.00 | 73 | 1059.4 |
| 20260504140806 | 59 | 0 | 4.3 | 0.0 | 0.00 | 0.10 | 0.00 | 73 | 1059.3 |
| 20260504140651 | 58 | 67 | 2.6 | 0.0 | 0.00 | 0.10 | 0.00 | 73 | 1059.4 |
| 20260504140529 | 58 | 67 | 5.2 | 0.0 | 0.00 | 0.10 | 0.00 | 73 | 1059.4 |
| 20260504140400 | 58 | 45 | 6.1 | 0.0 | 0.00 | 0.10 | 0.00 | 73 | 1059.4 |
| 20260504140247 | 58 | 22 | 2.6 | 0.0 | 0.00 | 0.10 | 0.00 | 73 | 1059.4 |
| 20260504140126 | 58 | 22 | 7.0 | 0.0 | 0.00 | 0.10 | 0.00 | 73 | 1059.4 |
| 20260504130813 | 60 | 45 | 0.0 | 0.0 | 0.00 | 0.43 | 0.00 | 72 | 1059.4 |
| 20260504130708 | 60 | 45 | 5.2 | 0.0 | 0.00 | 0.43 | 0.00 | 73 | 1059.4 |
| 20260504130601 | 60 | 67 | 6.1 | 0.0 | 0.00 | 0.43 | 0.00 | 73 | 1059.4 |
| 20260504130449 | 60 | 67 | 5.2 | 0.0 | 0.00 | 0.43 | 0.00 | 73 | 1059.4 |
| 20260504130328 | 60 | 45 | 9.6 | 0.0 | 0.00 | 0.43 | 0.00 | 73 | 1059.3 |
| 20260504130214 | 59 | 45 | 6.1 | 0.0 | 0.00 | 0.43 | 0.00 | 74 | 1059.3 |
| 20260504120304 | 55 | 0 | 5.2 | 0.0 | 0.00 | 0.43 | 0.00 | 82 | 1059.5 |
| 20260504120156 | 54 | 0 | 2.6 | 0.0 | 0.00 | 0.43 | 0.00 | 82 | 1059.6 |
| 20260504110642 | 54 | 22 | 0.9 | 0.0 | 0.00 | 0.43 | 0.00 | 84 | 1059.7 |
| 20260504110537 | 54 | 45 | 0.0 | 0.0 | 0.00 | 0.43 | 0.00 | 84 | 1059.6 |
| 20260504110425 | 54 | 0 | 0.0 | 0.0 | 0.00 | 0.43 | 0.00 | 84 | 1059.7 |
| 20260504110317 | 54 | 45 | 0.0 | 0.0 | 0.00 | 0.43 | 0.00 | 84 | 1059.7 |
| 20260504110158 | 54 | 45 | 5.2 | 0.0 | 0.00 | 0.43 | 0.00 | 84 | 1059.7 |
| 20260504100503 | 55 | 45 | 2.6 | 0.0 | 0.00 | 0.43 | 0.00 | 84 | 1059.4 |
| 20260504100334 | 55 | 67 | 0.0 | 0.0 | 0.00 | 0.43 | 0.00 | 83 | 1059.4 |
| 20260504100222 | 55 | 22 | 0.9 | 0.0 | 0.00 | 0.43 | 0.00 | 83 | 1059.4 |
| 20260504100117 | 55 | 22 | 4.3 | 0.0 | 0.00 | 0.43 | 0.00 | 83 | 1059.4 |
| 20260504090108 | 56 | 22 | 3.5 | 0.0 | 0.00 | 0.43 | 0.00 | 80 | 1059.1 |
| 20260504081852 | 58 | 90 | 0.0 | 0.0 | 0.00 | 0.43 | 0.00 | 80 | 1058.5 |
| 20260504081739 | 58 | 90 | 0.0 | 0.0 | 0.00 | 0.43 | 0.00 | 80 | 1058.6 |
| 20260504081618 | 58 | 90 | 0.0 | 0.0 | 0.00 | 0.43 | 0.00 | 80 | 1058.6 |
| 20260504081505 | 58 | 90 | 0.0 | 0.0 | 0.00 | 0.43 | 0.00 | 81 | 1058.5 |
| 20260504081352 | 58 | 90 | 0.0 | 0.0 | 0.00 | 0.43 | 0.00 | 81 | 1058.6 |
| 20260504081238 | 58 | 90 | 0.0 | 0.0 | 0.00 | 0.43 | 0.00 | 81 | 1058.5 |
| 20260504081117 | 57 | 90 | 0.0 | 0.0 | 0.00 | 0.43 | 0.00 | 81 | 1058.5 |
| 20260504081003 | 57 | 90 | 0.0 | 0.0 | 0.00 | 0.43 | 0.00 | 81 | 1058.5 |
| 20260504080835 | 57 | 90 | 0.0 | 0.0 | 0.00 | 0.43 | 0.00 | 81 | 1058.5 |
| 20260504080722 | 57 | 90 | 2.6 | 0.0 | 0.00 | 0.43 | 0.00 | 82 | 1058.3 |
| 20260504080616 | 57 | 112 | 2.6 | 0.0 | 0.00 | 0.43 | 0.00 | 82 | 1058.4 |
| 20260504080504 | 57 | 112 | 0.0 | 0.0 | 0.00 | 0.43 | 0.00 | 82 | 1058.4 |
| 20260504080350 | 57 | 112 | 0.0 | 0.0 | 0.00 | 0.43 | 0.00 | 82 | 1058.4 |
| 20260504080229 | 57 | 112 | 0.0 | 0.0 | 0.00 | 0.43 | 0.00 | 82 | 1058.4 |
| 20260504080117 | 56 | 112 | 0.0 | 0.0 | 0.00 | 0.43 | 0.00 | 82 | 1058.4 |
| 20260504070302 | 53 | 45 | 0.0 | 0.0 | 0.00 | 0.43 | 0.00 | 87 | 1058.3 |
| 20260504070158 | 53 | 45 | 0.0 | 0.0 | 0.00 | 0.43 | 0.00 | 87 | 1058.3 |
| 20260504060158 | 52 | 67 | 0.0 | 0.0 | 0.00 | 0.43 | 0.00 | 89 | 1057.8 |
| 20260504050506 | 52 | 292 | 99.1 | 0.0 | 0.00 | 0.43 | 0.00 | 91 | 1057.4 |
| 20260504045821 | 52 | 292 | 0.0 | 0.0 | 0.00 | 0.43 | 0.00 | 91 | 1057.1 |
| 20260504045707 | 52 | 292 | 0.0 | 0.0 | 0.00 | 0.43 | 0.00 | 91 | 1057.3 |
| 20260504045538 | 51 | 292 | 0.0 | 0.0 | 0.00 | 0.43 | 0.00 | 91 | 1057.1 |
| 20260504045418 | 51 | 292 | 0.0 | 0.0 | 0.00 | 0.43 | 0.00 | 91 | 1057.2 |
| 20260504045314 | 51 | 292 | 0.0 | 0.0 | 0.00 | 0.43 | 0.00 | 91 | 1057.1 |
| 20260504045207 | 51 | 292 | 0.0 | 0.0 | 0.00 | 0.43 | 0.00 | 91 | 1057.2 |
| 20260504045053 | 51 | 292 | 0.0 | 0.0 | 0.00 | 0.43 | 0.00 | 91 | 1057.3 |
| 20260504044932 | 51 | 292 | 0.0 | 0.0 | 0.00 | 0.43 | 0.00 | 91 | 1057.3 |
| 20260504044804 | 51 | 292 | 0.0 | 0.0 | 0.00 | 0.43 | 0.00 | 91 | 1057.3 |
| 20260504044650 | 51 | 292 | 0.0 | 0.0 | 0.00 | 0.43 | 0.00 | 91 | 1057.3 |
| 20260504044539 | 51 | 292 | 0.0 | 0.0 | 0.00 | 0.43 | 0.00 | 91 | 1057.2 |
| 20260504044432 | 51 | 292 | 0.0 | 0.0 | 0.00 | 0.43 | 0.00 | 91 | 1057.3 |
| 20260504043930 | 51 | 292 | 99.1 | 0.0 | 0.00 | 0.43 | 0.00 | 91 | 1057.2 |
| 20260504043301 | 51 | 292 | 99.1 | 0.0 | 0.00 | 0.43 | 0.00 | 91 | 1057.1 |
| 20260504042630 | 51 | 292 | 4.3 | 0.0 | 0.00 | 0.43 | 0.00 | 91 | 1057.4 |
| 20260504042437 | 51 | 337 | 99.1 | 0.0 | 0.00 | 0.43 | 0.00 | 91 | 1057.1 |
| 20260504041751 | 51 | 337 | 99.1 | 0.0 | 0.00 | 0.43 | 0.00 | 91 | 1056.9 |
| 20260504041121 | 51 | 337 | 0.0 | 0.0 | 0.00 | 0.43 | 0.00 | 91 | 1056.9 |
| 20260504040958 | 51 | 337 | 0.0 | 0.0 | 0.00 | 0.43 | 0.00 | 91 | 1056.9 |
| 20260504040824 | 51 | 337 | 0.0 | 0.0 | 0.00 | 0.43 | 0.00 | 91 | 1056.9 |
| 20260504040717 | 51 | 337 | 0.0 | 0.0 | 0.00 | 0.43 | 0.00 | 91 | 1056.9 |
| 20260504040556 | 51 | 337 | 0.0 | 0.0 | 0.00 | 0.43 | 0.00 | 91 | 1056.9 |
| 20260504040434 | 51 | 337 | 0.0 | 0.0 | 0.00 | 0.43 | 0.00 | 91 | 1056.8 |
| 20260504040321 | 51 | 337 | 0.0 | 0.0 | 0.00 | 0.43 | 0.00 | 91 | 1056.8 |
| 20260504040201 | 51 | 337 | 0.0 | 0.0 | 0.00 | 0.43 | 0.00 | 91 | 1056.8 |
| 20260504040047 | 50 | 337 | 0.0 | 0.0 | 0.00 | 0.43 | 0.00 | 91 | 1056.8 |
| 20260504035928 | 51 | 337 | 0.0 | 0.0 | 0.00 | 0.43 | 0.00 | 91 | 1056.9 |
| 20260504035813 | 50 | 337 | 0.0 | 0.0 | 0.00 | 0.43 | 0.00 | 91 | 1056.8 |
| 20260504035652 | 51 | 337 | 0.0 | 0.0 | 0.00 | 0.43 | 0.00 | 91 | 1056.8 |
| 20260504035539 | 50 | 337 | 0.0 | 0.0 | 0.00 | 0.43 | 0.00 | 91 | 1056.7 |
| 20260504035427 | 51 | 337 | 0.0 | 0.0 | 0.00 | 0.43 | 0.00 | 91 | 1056.7 |
| 20260504035323 | 51 | 337 | 0.0 | 0.0 | 0.00 | 0.43 | 0.00 | 91 | 1056.7 |
| 20260504035215 | 51 | 337 | 0.0 | 0.0 | 0.00 | 0.43 | 0.00 | 91 | 1056.7 |
| 20260504035039 | 51 | 337 | 0.0 | 0.0 | 0.00 | 0.43 | 0.00 | 91 | 1056.8 |
| 20260504034935 | 51 | 337 | 0.0 | 0.0 | 0.00 | 0.43 | 0.00 | 91 | 1056.8 |
| 20260504034828 | 51 | 0 | 0.0 | 0.0 | 0.00 | 0.43 | 0.00 | 91 | 1056.9 |
| 20260504034707 | 51 | 0 | 0.0 | 0.0 | 0.00 | 0.43 | 0.00 | 91 | 1056.8 |
| 20260504034545 | 51 | 0 | 0.0 | 0.0 | 0.00 | 0.43 | 0.00 | 91 | 1056.8 |
| 20260504034425 | 51 | 0 | 0.0 | 0.0 | 0.00 | 0.43 | 0.00 | 91 | 1056.9 |
| 20260504034321 | 51 | 0 | 0.0 | 0.0 | 0.00 | 0.43 | 0.00 | 91 | 1056.9 |
| 20260504034216 | 51 | 337 | 0.0 | 0.0 | 0.00 | 0.43 | 0.00 | 91 | 1056.9 |
| 20260504034112 | 51 | 337 | 0.0 | 0.0 | 0.00 | 0.43 | 0.00 | 91 | 1056.9 |
| 20260504034005 | 51 | 337 | 0.0 | 0.0 | 0.00 | 0.43 | 0.00 | 91 | 1057.0 |
| 20260504033859 | 51 | 337 | 0.0 | 0.0 | 0.00 | 0.43 | 0.00 | 91 | 1056.9 |
| 20260504033746 | 51 | 337 | 0.0 | 0.0 | 0.00 | 0.43 | 0.00 | 91 | 1057.0 |
| 20260504033625 | 51 | 337 | 0.0 | 0.0 | 0.00 | 0.43 | 0.00 | 91 | 1057.0 |
| 20260504033505 | 51 | 337 | 0.0 | 0.0 | 0.00 | 0.43 | 0.00 | 91 | 1056.9 |
| 20260504033352 | 51 | 337 | 0.0 | 0.0 | 0.00 | 0.43 | 0.00 | 91 | 1057.1 |
| 20260504033247 | 51 | 337 | 0.0 | 0.0 | 0.00 | 0.43 | 0.00 | 91 | 1056.9 |
| 20260504033139 | 51 | 337 | 0.0 | 0.0 | 0.00 | 0.43 | 0.00 | 91 | 1057.0 |
| 20260504033027 | 51 | 337 | 0.0 | 0.0 | 0.00 | 0.43 | 0.00 | 91 | 1056.9 |
| 20260504032907 | 51 | 337 | 0.0 | 0.0 | 0.00 | 0.43 | 0.00 | 91 | 1056.9 |
| 20260504032752 | 51 | 337 | 0.0 | 0.0 | 0.00 | 0.43 | 0.00 | 91 | 1056.8 |
| 20260504032640 | 51 | 337 | 0.0 | 0.0 | 0.00 | 0.43 | 0.00 | 91 | 1056.8 |
| 20260504032535 | 51 | 337 | 0.0 | 0.0 | 0.00 | 0.43 | 0.00 | 91 | 1056.9 |
| 20260504032422 | 51 | 337 | 0.0 | 0.0 | 0.00 | 0.43 | 0.00 | 91 | 1056.8 |
| 20260504032308 | 51 | 0 | 0.0 | 0.0 | 0.00 | 0.43 | 0.00 | 91 | 1056.8 |
| 20260504032155 | 51 | 0 | 0.0 | 0.0 | 0.00 | 0.43 | 0.00 | 91 | 1056.8 |
| 20260504032043 | 51 | 0 | 0.0 | 0.0 | 0.00 | 0.43 | 0.00 | 91 | 1056.7 |
| 20260504031938 | 51 | 22 | 0.0 | 0.0 | 0.00 | 0.43 | 0.00 | 91 | 1056.8 |